Time,TemperatureF,DewpointF,PressureIn,WindDirection,WindDirectionDegrees,WindSpeedMPH,WindSpeedGustMPH,Humidity,HourlyPrecipIn,Conditions,Clouds,dailyrainin,SoftwareType,DateUTC
2013-12-17 00:00:00,41.8,37.9,30.16,NE,52,0.0,0.0,86,0.00,,OVC060,0.00,VWS V14.01,2013-12-17 05:00:00,
2013-12-17 00:01:00,41.8,37.9,30.16,NE,52,0.0,0.0,86,0.00,,OVC060,0.00,VWS V14.01,2013-12-17 05:01:00,
2013-12-17 00:03:00,41.7,38.1,30.16,NE,52,0.0,0.0,87,0.00,,OVC060,0.00,VWS V14.01,2013-12-17 05:03:00,
2013-12-17 00:08:00,41.6,38.3,30.16,NE,52,0.0,0.0,88,0.00,,OVC060,0.00,VWS V14.01,2013-12-17 05:08:00,
2013-12-17 00:13:00,41.3,38.0,30.16,NE,52,0.0,0.0,88,0.00,,OVC060,0.00,VWS V14.01,2013-12-17 05:13:00,
2013-12-17 00:18:00,41.1,37.8,30.16,NE,52,0.0,0.0,88,0.00,,OVC060,0.00,VWS V14.01,2013-12-17 05:18:00,
2013-12-17 00:23:00,41.0,37.7,30.16,NE,52,0.0,0.0,88,0.00,,OVC060,0.00,VWS V14.01,2013-12-17 05:23:00,
2013-12-17 00:28:00,40.9,37.6,30.16,NE,52,0.0,0.0,88,0.00,,OVC060,0.00,VWS V14.01,2013-12-17 05:28:00,
2013-12-17 00:33:00,40.8,37.5,30.16,NE,52,0.0,0.0,88,0.00,,OVC060,0.00,VWS V14.01,2013-12-17 05:33:00,
2013-12-17 00:38:00,40.7,37.4,30.16,NE,52,0.0,0.0,88,0.00,,OVC060,0.00,VWS V14.01,2013-12-17 05:38:00,
2013-12-17 00:43:00,40.7,37.4,30.15,NE,52,0.0,0.0,88,0.00,,OVC060,0.00,VWS V14.01,2013-12-17 05:43:00,
2013-12-17 00:48:00,40.7,37.7,30.15,NE,52,0.0,0.0,89,0.00,,OVC060,0.00,VWS V14.01,2013-12-17 05:48:00,
2013-12-17 00:54:00,40.7,37.7,30.15,NE,52,0.0,0.0,89,0.00,,OVC060,0.00,VWS V14.01,2013-12-17 05:54:00,
2013-12-17 00:59:00,40.7,37.4,30.15,NE,52,0.0,0.0,88,0.00,,OVC060,0.00,VWS V14.01,2013-12-17 05:59:00,
2013-12-17 01:00:00,40.7,37.4,30.16,NE,52,0.0,0.0,88,0.00,,OVC060,0.00,VWS V14.01,2013-12-17 06:00:00,
2013-12-17 01:04:00,40.7,37.4,30.16,NE,52,0.0,0.0,88,0.00,,OVC060,0.00,VWS V14.01,2013-12-17 06:04:00,
2013-12-17 01:09:00,40.5,37.2,30.15,NE,52,0.0,0.0,88,0.00,,OVC060,0.00,VWS V14.01,2013-12-17 06:09:00,
2013-12-17 01:14:00,40.4,37.1,30.15,NE,52,0.0,0.0,88,0.00,,OVC060,0.00,VWS V14.01,2013-12-17 06:14:00,
2013-12-17 01:19:00,40.3,37.0,30.15,NE,52,0.0,0.0,88,0.00,,OVC060,0.00,VWS V14.01,2013-12-17 06:19:00,
2013-12-17 01:24:00,40.3,37.0,30.15,NE,52,0.0,0.0,88,0.00,,OVC060,0.00,VWS V14.01,2013-12-17 06:24:00,
2013-12-17 01:29:00,40.2,36.9,30.15,NE,52,0.0,0.0,88,0.00,,OVC060,0.00,VWS V14.01,2013-12-17 06:29:00,
2013-12-17 01:34:00,40.2,36.9,30.15,NE,52,0.0,0.0,88,0.00,,OVC060,0.00,VWS V14.01,2013-12-17 06:34:00,
2013-12-17 01:39:00,40.1,36.8,30.15,NE,52,0.0,0.0,88,0.00,,OVC060,0.00,VWS V14.01,2013-12-17 06:39:00,
2013-12-17 01:44:00,40.0,36.7,30.15,NE,52,0.0,0.0,88,0.00,,OVC060,0.00,VWS V14.01,2013-12-17 06:44:00,
2013-12-17 01:49:00,39.9,36.6,30.15,NE,52,0.0,0.0,88,0.00,,OVC060,0.00,VWS V14.01,2013-12-17 06:49:00,
2013-12-17 01:54:00,39.8,36.5,30.15,NE,52,0.0,0.0,88,0.00,,OVC060,0.00,VWS V14.01,2013-12-17 06:54:00,
2013-12-17 01:59:00,39.7,36.4,30.15,NE,52,0.0,0.0,88,0.00,,OVC060,0.00,VWS V14.01,2013-12-17 06:59:00,
2013-12-17 02:00:00,39.7,36.4,30.15,NE,52,0.0,0.0,88,0.00,,OVC060,0.00,VWS V14.01,2013-12-17 07:00:00,
2013-12-17 02:04:00,39.7,36.4,30.15,NE,52,0.0,0.0,88,0.00,,OVC060,0.00,VWS V14.01,2013-12-17 07:04:00,
2013-12-17 02:09:00,39.6,36.6,30.15,NE,52,0.0,0.0,89,0.00,,OVC060,0.00,VWS V14.01,2013-12-17 07:09:00,
2013-12-17 02:14:00,39.5,36.2,30.15,NE,52,0.0,0.0,88,0.00,,OVC060,0.00,VWS V14.01,2013-12-17 07:14:00,
2013-12-17 02:19:00,39.4,36.2,30.15,NE,52,0.0,0.0,88,0.00,,OVC060,0.00,VWS V14.01,2013-12-17 07:19:00,
2013-12-17 02:24:00,39.3,36.0,30.15,NE,52,0.0,0.0,88,0.00,,OVC060,0.00,VWS V14.01,2013-12-17 07:24:00,
2013-12-17 02:29:00,39.3,36.3,30.15,NE,52,0.0,0.0,89,0.00,,OVC060,0.00,VWS V14.01,2013-12-17 07:29:00,
2013-12-17 02:34:00,39.3,36.3,30.15,NE,52,0.0,0.0,89,0.00,,OVC060,0.00,VWS V14.01,2013-12-17 07:34:00,
2013-12-17 02:39:00,39.1,36.1,30.16,NE,52,0.0,0.0,89,0.00,,OVC060,0.00,VWS V14.01,2013-12-17 07:39:00,
2013-12-17 02:44:00,39.0,36.3,30.16,NE,52,0.0,0.0,90,0.00,,OVC060,0.00,VWS V14.01,2013-12-17 07:44:00,
2013-12-17 02:49:00,38.8,35.8,30.16,NE,52,0.0,0.0,89,0.00,,OVC060,0.00,VWS V14.01,2013-12-17 07:49:00,
2013-12-17 02:54:00,38.7,35.7,30.17,NE,52,0.0,0.0,89,0.00,,OVC060,0.00,VWS V14.01,2013-12-17 07:54:00,
2013-12-17 02:59:00,38.6,35.9,30.17,NE,52,0.0,0.0,90,0.00,,OVC060,0.00,VWS V14.01,2013-12-17 07:59:00,
2013-12-17 03:00:00,38.5,35.8,30.17,NE,52,0.0,0.0,90,0.00,,OVC060,0.00,VWS V14.01,2013-12-17 08:00:00,
2013-12-17 03:04:00,38.4,35.7,30.17,NE,52,0.0,0.0,90,0.00,,OVC060,0.00,VWS V14.01,2013-12-17 08:04:00,
2013-12-17 03:09:00,38.3,35.6,30.17,NE,52,0.0,0.0,90,0.00,,OVC060,0.00,VWS V14.01,2013-12-17 08:09:00,
2013-12-17 03:14:00,38.3,35.6,30.17,NE,52,0.0,0.0,90,0.00,,OVC060,0.00,VWS V14.01,2013-12-17 08:14:00,
2013-12-17 03:19:00,38.2,35.5,30.17,NE,52,0.0,0.0,90,0.00,,OVC060,0.00,VWS V14.01,2013-12-17 08:19:00,
2013-12-17 03:24:00,38.3,35.6,30.17,NE,52,0.0,0.0,90,0.00,,OVC060,0.00,VWS V14.01,2013-12-17 08:24:00,
2013-12-17 03:29:00,38.3,35.9,30.17,NE,52,0.0,0.0,91,0.00,,OVC060,0.00,VWS V14.01,2013-12-17 08:29:00,
2013-12-17 03:34:00,38.4,36.0,30.17,NE,52,0.0,0.0,91,0.00,,OVC060,0.00,VWS V14.01,2013-12-17 08:34:00,
2013-12-17 03:39:00,38.3,35.9,30.17,NE,52,0.0,0.0,91,0.00,,OVC060,0.00,VWS V14.01,2013-12-17 08:39:00,
2013-12-17 03:44:00,38.3,35.9,30.17,NE,52,0.0,0.0,91,0.00,,OVC060,0.00,VWS V14.01,2013-12-17 08:44:00,
2013-12-17 03:49:00,38.3,35.9,30.17,NE,52,0.0,0.0,91,0.00,,OVC060,0.00,VWS V14.01,2013-12-17 08:49:00,
2013-12-17 03:54:00,38.3,35.9,30.17,NE,52,0.0,0.0,91,0.00,,OVC060,0.00,VWS V14.01,2013-12-17 08:54:00,
2013-12-17 04:00:00,38.4,36.0,30.16,NE,52,0.0,0.0,91,0.00,,OVC060,0.00,VWS V14.01,2013-12-17 09:00:00,
2013-12-17 04:05:00,38.4,36.0,30.17,NE,52,0.0,0.0,91,0.00,,OVC060,0.00,VWS V14.01,2013-12-17 09:05:00,
2013-12-17 04:10:00,38.4,36.0,30.16,NE,52,0.0,0.0,91,0.00,,OVC060,0.00,VWS V14.01,2013-12-17 09:10:00,
2013-12-17 04:15:00,38.4,35.7,30.16,NE,52,0.0,0.0,90,0.00,,OVC060,0.00,VWS V14.01,2013-12-17 09:15:00,
2013-12-17 04:20:00,38.4,35.7,30.16,NE,52,0.0,0.0,90,0.00,,OVC060,0.00,VWS V14.01,2013-12-17 09:20:00,
2013-12-17 04:25:00,38.4,35.7,30.16,NE,52,0.0,0.0,90,0.00,,OVC060,0.00,VWS V14.01,2013-12-17 09:25:00,
2013-12-17 04:30:00,38.4,35.7,30.16,NE,52,0.0,0.0,90,0.00,,OVC060,0.00,VWS V14.01,2013-12-17 09:30:00,
2013-12-17 04:35:00,38.3,35.6,30.16,NE,52,0.0,0.0,90,0.00,,OVC060,0.00,VWS V14.01,2013-12-17 09:35:00,
2013-12-17 04:40:00,38.2,35.5,30.16,NE,52,0.0,0.0,90,0.00,,OVC060,0.00,VWS V14.01,2013-12-17 09:40:00,
2013-12-17 04:45:00,38.1,35.4,30.16,NE,52,0.0,0.0,90,0.00,,OVC060,0.00,VWS V14.01,2013-12-17 09:45:00,
2013-12-17 04:50:00,38.0,35.3,30.16,NE,52,0.0,0.0,90,0.00,,OVC060,0.00,VWS V14.01,2013-12-17 09:50:00,
2013-12-17 04:55:00,37.9,35.2,30.15,NE,52,0.0,0.0,90,0.00,,OVC060,0.00,VWS V14.01,2013-12-17 09:55:00,
2013-12-17 05:00:00,37.8,35.1,30.15,NE,52,0.0,0.0,90,0.00,,OVC060,0.00,VWS V14.01,2013-12-17 10:00:00,
2013-12-17 05:05:00,37.8,35.1,30.15,NE,52,0.0,0.0,90,0.00,,OVC060,0.00,VWS V14.01,2013-12-17 10:05:00,
2013-12-17 05:10:00,37.7,35.0,30.15,NE,52,0.0,0.0,90,0.00,,OVC060,0.00,VWS V14.01,2013-12-17 10:10:00,
2013-12-17 05:15:00,37.7,35.3,30.15,NE,52,0.0,0.0,91,0.00,,OVC060,0.00,VWS V14.01,2013-12-17 10:15:00,
2013-12-17 05:20:00,37.7,35.3,30.14,NE,52,0.0,0.0,91,0.00,,OVC060,0.00,VWS V14.01,2013-12-17 10:20:00,
2013-12-17 05:25:00,37.7,35.3,30.14,NE,52,0.0,0.0,91,0.00,,OVC060,0.00,VWS V14.01,2013-12-17 10:25:00,
2013-12-17 05:30:00,37.7,35.3,30.14,NE,52,0.0,0.0,91,0.00,,OVC060,0.00,VWS V14.01,2013-12-17 10:30:00,
2013-12-17 05:35:00,37.5,35.1,30.14,NE,52,0.0,0.0,91,0.00,,OVC060,0.00,VWS V14.01,2013-12-17 10:35:00,
2013-12-17 05:40:00,37.4,35.0,30.14,NE,52,0.0,0.0,91,0.00,,OVC060,0.00,VWS V14.01,2013-12-17 10:40:00,
2013-12-17 05:45:00,37.3,34.9,30.14,NE,52,0.0,0.0,91,0.00,,OVC060,0.00,VWS V14.01,2013-12-17 10:45:00,
2013-12-17 05:50:00,37.3,34.9,30.14,NE,52,0.0,0.0,91,0.00,,OVC060,0.00,VWS V14.01,2013-12-17 10:50:00,
2013-12-17 05:55:00,37.3,34.9,30.15,NE,52,0.0,0.0,91,0.00,,OVC060,0.00,VWS V14.01,2013-12-17 10:55:00,
2013-12-17 06:00:00,37.3,34.9,30.14,NE,52,0.0,0.0,91,0.00,,OVC060,0.00,VWS V14.01,2013-12-17 11:00:00,
2013-12-17 06:05:00,37.3,34.9,30.15,NE,52,0.0,0.0,91,0.00,,OVC060,0.00,VWS V14.01,2013-12-17 11:05:00,
2013-12-17 06:10:00,37.3,34.9,30.15,NE,52,0.0,0.0,91,0.00,,OVC060,0.00,VWS V14.01,2013-12-17 11:10:00,
2013-12-17 06:20:00,37.3,34.9,30.15,NE,52,0.0,0.0,91,0.00,,OVC060,0.00,VWS V14.01,2013-12-17 11:20:00,
2013-12-17 06:26:00,37.4,35.0,30.15,NE,52,0.0,0.0,91,0.00,,OVC060,0.00,VWS V14.01,2013-12-17 11:26:00,
2013-12-17 06:31:00,37.3,34.9,30.15,NE,52,0.0,0.0,91,0.00,,OVC060,0.00,VWS V14.01,2013-12-17 11:31:00,
2013-12-17 06:36:00,37.3,34.9,30.15,NE,52,0.0,0.0,91,0.00,,OVC060,0.00,VWS V14.01,2013-12-17 11:36:00,
2013-12-17 06:41:00,37.1,34.7,30.15,NE,52,0.0,0.0,91,0.00,,OVC060,0.00,VWS V14.01,2013-12-17 11:41:00,
2013-12-17 06:46:00,37.0,34.6,30.15,NE,52,0.0,0.0,91,0.00,,OVC060,0.00,VWS V14.01,2013-12-17 11:46:00,
2013-12-17 06:51:00,37.0,34.6,30.15,NE,52,0.0,0.0,91,0.00,,OVC060,0.00,VWS V14.01,2013-12-17 11:51:00,
2013-12-17 06:56:00,37.0,34.6,30.16,NE,52,0.0,0.0,91,0.00,,OVC060,0.00,VWS V14.01,2013-12-17 11:56:00,
2013-12-17 07:00:00,37.0,34.6,30.16,NE,52,0.0,0.0,91,0.00,,OVC060,0.00,VWS V14.01,2013-12-17 12:00:00,
2013-12-17 07:01:00,37.0,34.6,30.16,NE,52,0.0,0.0,91,0.00,,OVC060,0.00,VWS V14.01,2013-12-17 12:01:00,
2013-12-17 07:06:00,37.0,34.6,30.16,NE,52,0.0,0.0,91,0.00,,OVC060,0.00,VWS V14.01,2013-12-17 12:06:00,
2013-12-17 07:11:00,37.0,34.6,30.16,NE,52,0.0,0.0,91,0.00,,OVC060,0.00,VWS V14.01,2013-12-17 12:11:00,
2013-12-17 07:16:00,36.9,34.8,30.16,NE,52,0.0,0.0,92,0.00,,OVC060,0.00,VWS V14.01,2013-12-17 12:16:00,
2013-12-17 07:21:00,36.9,34.8,30.16,NE,52,0.0,0.0,92,0.00,,OVC060,0.00,VWS V14.01,2013-12-17 12:21:00,
2013-12-17 07:26:00,36.9,34.8,30.16,NE,52,0.0,0.0,92,0.00,,OVC060,0.00,VWS V14.01,2013-12-17 12:26:00,
2013-12-17 07:31:00,37.0,34.9,30.16,NE,52,0.0,0.0,92,0.00,,OVC060,0.00,VWS V14.01,2013-12-17 12:31:00,
2013-12-17 07:36:00,37.0,34.9,30.16,NE,52,0.0,0.0,92,0.00,,OVC060,0.00,VWS V14.01,2013-12-17 12:36:00,
2013-12-17 07:41:00,37.1,35.0,30.16,NE,52,0.0,0.0,92,0.00,,OVC060,0.00,VWS V14.01,2013-12-17 12:41:00,
2013-12-17 07:46:00,37.3,35.5,30.16,NE,52,0.0,0.0,93,0.00,,OVC060,0.00,VWS V14.01,2013-12-17 12:46:00,
2013-12-17 07:51:00,37.5,35.7,30.16,NE,52,0.0,0.0,93,0.00,,OVC060,0.00,VWS V14.01,2013-12-17 12:51:00,
2013-12-17 07:56:00,37.7,35.6,30.16,NE,52,0.0,0.0,92,0.00,,OVC060,0.00,VWS V14.01,2013-12-17 12:56:00,
2013-12-17 08:00:00,38.1,36.0,30.16,NE,52,0.0,0.0,92,0.00,,OVC060,0.00,VWS V14.01,2013-12-17 13:00:00,
2013-12-17 08:01:00,38.1,36.0,30.16,NE,52,0.0,0.0,92,0.00,,OVC060,0.00,VWS V14.01,2013-12-17 13:01:00,
2013-12-17 08:06:00,38.4,36.3,30.16,NE,52,0.0,0.0,92,0.00,,OVC060,0.00,VWS V14.01,2013-12-17 13:06:00,
2013-12-17 08:11:00,38.8,36.4,30.16,NE,52,0.0,0.0,91,0.00,,OVC060,0.00,VWS V14.01,2013-12-17 13:11:00,
2013-12-17 08:21:00,39.8,36.8,30.16,NE,52,0.0,0.0,89,0.00,,OVC060,0.00,VWS V14.01,2013-12-17 13:21:00,
2013-12-17 08:26:00,40.4,37.1,30.16,NE,52,0.0,0.0,88,0.00,,OVC060,0.00,VWS V14.01,2013-12-17 13:26:00,
2013-12-17 08:31:00,40.9,37.3,30.15,NE,52,0.0,0.0,87,0.00,,OVC060,0.00,VWS V14.01,2013-12-17 13:31:00,
2013-12-17 08:36:00,41.4,37.5,30.16,NE,52,0.0,0.0,86,0.00,,OVC060,0.00,VWS V14.01,2013-12-17 13:36:00,
2013-12-17 08:41:00,41.9,37.7,30.16,SW,217,0.0,2.0,85,0.00,,OVC060,0.00,VWS V14.01,2013-12-17 13:41:00,
2013-12-17 08:46:00,42.5,37.7,30.16,South,177,6.0,6.0,83,0.00,,OVC060,0.00,VWS V14.01,2013-12-17 13:46:00,
2013-12-17 08:51:00,43.4,38.0,30.16,SW,225,0.0,6.0,81,0.00,,OVC060,0.00,VWS V14.01,2013-12-17 13:51:00,
2013-12-17 08:56:00,44.1,38.0,30.17,ENE,62,0.0,6.0,79,0.00,,OVC060,0.00,VWS V14.01,2013-12-17 13:56:00,
2013-12-17 09:00:00,44.7,38.3,30.16,NE,34,1.0,6.0,78,0.00,,OVC060,0.00,VWS V14.01,2013-12-17 14:00:00,
2013-12-17 09:01:00,44.7,38.3,30.16,NE,34,0.0,1.0,78,0.00,,OVC060,0.00,VWS V14.01,2013-12-17 14:01:00,
2013-12-17 09:06:00,45.1,38.3,30.16,North,355,0.0,4.0,77,0.00,,OVC060,0.00,VWS V14.01,2013-12-17 14:06:00,
2013-12-17 09:11:00,45.4,39.0,30.16,SSW,213,0.0,4.0,78,0.00,,OVC060,0.00,VWS V14.01,2013-12-17 14:11:00,
2013-12-17 09:17:00,45.8,39.3,30.17,WSW,240,0.0,5.0,78,0.00,,OVC060,0.00,VWS V14.01,2013-12-17 14:17:00,
2013-12-17 09:22:00,46.1,39.0,30.16,ESE,106,0.0,5.0,76,0.00,,OVC060,0.00,VWS V14.01,2013-12-17 14:22:00,
2013-12-17 09:27:00,46.4,39.3,30.16,ESE,103,0.0,5.0,76,0.00,,OVC060,0.00,VWS V14.01,2013-12-17 14:27:00,
2013-12-17 09:32:00,46.8,39.0,30.16,South,190,0.0,5.0,74,0.00,,OVC060,0.00,VWS V14.01,2013-12-17 14:32:00,
2013-12-17 09:37:00,47.2,39.0,30.16,SW,215,0.0,5.0,73,0.00,,OVC060,0.00,VWS V14.01,2013-12-17 14:37:00,
2013-12-17 09:42:00,47.5,39.3,30.16,SW,215,0.0,5.0,73,0.00,,OVC060,0.00,VWS V14.01,2013-12-17 14:42:00,
2013-12-17 09:47:00,47.8,39.2,30.16,SW,219,0.0,5.0,72,0.00,,OVC060,0.00,VWS V14.01,2013-12-17 14:47:00,
2013-12-17 09:52:00,48.2,39.2,30.16,NNE,17,0.0,5.0,71,0.00,,OVC060,0.00,VWS V14.01,2013-12-17 14:52:00,
2013-12-17 09:57:00,48.6,39.6,30.16,NNE,12,0.0,5.0,71,0.00,,OVC060,0.00,VWS V14.01,2013-12-17 14:57:00,
2013-12-17 10:00:00,49.0,39.7,30.17,SSW,196,0.0,5.0,70,0.00,,OVC060,0.00,VWS V14.01,2013-12-17 15:00:00,
2013-12-17 10:02:00,49.1,39.8,30.17,SSW,196,0.0,0.0,70,0.00,,OVC060,0.00,VWS V14.01,2013-12-17 15:02:00,
2013-12-17 10:07:00,49.5,39.8,30.17,North,350,1.0,4.0,69,0.00,,OVC060,0.00,VWS V14.01,2013-12-17 15:07:00,
2013-12-17 10:12:00,50.0,39.9,30.17,NNE,28,0.0,4.0,68,0.00,,OVC060,0.00,VWS V14.01,2013-12-17 15:12:00,
2013-12-17 10:28:00,51.3,41.1,30.17,SW,214,0.0,1.0,68,0.00,,OVC060,0.00,VWS V14.01,2013-12-17 15:28:00,
2013-12-17 10:33:00,51.6,40.6,30.17,SSE,164,0.0,2.0,66,0.00,,OVC060,0.00,VWS V14.01,2013-12-17 15:33:00,
2013-12-17 10:38:00,51.9,40.5,30.17,East,98,0.0,4.0,65,0.00,,OVC060,0.00,VWS V14.01,2013-12-17 15:38:00,
2013-12-17 10:43:00,52.2,40.8,30.17,SW,223,0.0,4.0,65,0.00,,OVC060,0.00,VWS V14.01,2013-12-17 15:43:00,
2013-12-17 10:48:00,52.4,41.0,30.16,SW,234,0.0,4.0,65,0.00,,OVC060,0.00,VWS V14.01,2013-12-17 15:48:00,
2013-12-17 10:53:00,52.8,42.2,30.16,SSW,203,0.0,4.0,67,0.00,,OVC060,0.00,VWS V14.01,2013-12-17 15:53:00,
2013-12-17 10:58:00,53.0,40.3,30.16,NNE,25,0.0,5.0,62,0.00,,OVC060,0.00,VWS V14.01,2013-12-17 15:58:00,
2013-12-17 11:00:00,53.3,40.6,30.16,SSW,208,2.0,5.0,62,0.00,,OVC060,0.00,VWS V15.00,2013-12-17 16:00:00,
2013-12-17 11:03:00,53.4,40.3,30.16,SSE,157,0.0,3.0,61,0.00,,OVC060,0.00,VWS V14.01,2013-12-17 16:03:00,
2013-12-17 11:08:00,53.7,41.0,30.16,ENE,78,0.0,3.0,62,0.00,,OVC060,0.00,VWS V14.01,2013-12-17 16:08:00,
2013-12-17 11:13:00,54.1,41.4,30.15,NW,306,2.0,3.0,62,0.00,,OVC060,0.00,VWS V14.01,2013-12-17 16:13:00,
2013-12-17 11:18:00,54.5,42.2,30.15,NNW,333,0.0,3.0,63,0.00,,OVC060,0.00,VWS V14.01,2013-12-17 16:18:00,
2013-12-17 11:23:00,55.0,42.7,30.14,NNW,333,0.0,3.0,63,0.00,,OVC060,0.00,VWS V14.01,2013-12-17 16:23:00,
2013-12-17 11:28:00,55.5,41.4,30.14,SSE,164,0.0,4.0,59,0.00,,OVC060,0.00,VWS V14.01,2013-12-17 16:28:00,
2013-12-17 11:33:00,56.0,41.9,30.14,East,90,0.0,4.0,59,0.00,,OVC060,0.00,VWS V14.01,2013-12-17 16:33:00,
2013-12-17 11:38:00,56.6,41.6,30.14,East,95,0.0,4.0,57,0.00,,OVC060,0.00,VWS V14.01,2013-12-17 16:38:00,
2013-12-17 11:43:00,57.2,41.2,30.13,SE,126,0.0,7.0,55,0.00,,OVC060,0.00,VWS V14.01,2013-12-17 16:43:00,
2013-12-17 11:48:00,57.8,41.8,30.12,NE,36,1.0,7.0,55,0.00,,OVC060,0.00,VWS V14.01,2013-12-17 16:48:00,
2013-12-17 11:53:00,58.3,41.8,30.12,NNW,337,0.0,7.0,54,0.00,,OVC060,0.00,VWS V14.01,2013-12-17 16:53:00,
2013-12-17 11:58:00,58.7,43.5,30.11,SE,128,1.0,7.0,57,0.00,,OVC060,0.00,VWS V14.01,2013-12-17 16:58:00,
2013-12-17 12:00:00,59.0,43.3,30.11,ENE,67,0.0,7.0,56,0.00,,OVC060,0.00,VWS V15.00,2013-12-17 17:00:00,
2013-12-17 12:03:00,59.0,42.9,30.11,ENE,63,0.0,2.0,55,0.00,,OVC060,0.00,VWS V14.01,2013-12-17 17:03:00,
2013-12-17 12:08:00,59.1,42.5,30.10,East,92,0.0,3.0,54,0.00,,OVC060,0.00,VWS V14.01,2013-12-17 17:08:00,
2013-12-17 12:13:00,59.6,42.0,30.09,ESE,121,0.0,3.0,52,0.00,,OVC060,0.00,VWS V14.01,2013-12-17 17:13:00,
2013-12-17 12:18:00,60.0,42.3,30.09,South,173,0.0,5.0,52,0.00,,OVC060,0.00,VWS V14.01,2013-12-17 17:18:00,
2013-12-17 12:23:00,60.3,43.1,30.09,South,189,0.0,5.0,53,0.00,,OVC060,0.00,VWS V14.01,2013-12-17 17:23:00,
2013-12-17 12:28:00,60.4,42.2,30.08,SSW,213,0.0,5.0,51,0.00,,OVC060,0.00,VWS V14.01,2013-12-17 17:28:00,
2013-12-17 12:33:00,60.7,43.5,30.08,NE,50,0.0,6.0,53,0.00,,OVC060,0.00,VWS V14.01,2013-12-17 17:33:00,
2013-12-17 12:38:00,60.9,42.2,30.08,SSE,150,1.0,6.0,50,0.00,,OVC060,0.00,VWS V14.01,2013-12-17 17:38:00,
2013-12-17 12:43:00,61.1,41.8,30.08,ESE,102,2.0,6.0,49,0.00,,OVC060,0.00,VWS V14.01,2013-12-17 17:43:00,
2013-12-17 12:48:00,61.3,41.5,30.07,SW,229,0.0,6.0,48,0.00,,OVC060,0.00,VWS V14.01,2013-12-17 17:48:00,
2013-12-17 12:53:00,61.4,42.6,30.07,WSW,238,0.0,6.0,50,0.00,,OVC060,0.00,VWS V14.01,2013-12-17 17:53:00,
2013-12-17 12:58:00,61.7,41.8,30.07,South,181,6.0,8.0,48,0.00,,OVC060,0.00,VWS V14.01,2013-12-17 17:58:00,
2013-12-17 13:00:00,61.9,42.0,30.07,SE,129,0.0,8.0,48,0.00,,OVC060,0.00,VWS V15.00,2013-12-17 18:00:00,
2013-12-17 13:04:00,62.0,41.6,30.07,ESE,122,0.0,2.0,47,0.00,,OVC060,0.00,VWS V14.01,2013-12-17 18:04:00,
2013-12-17 13:09:00,62.1,40.5,30.07,SW,219,0.0,6.0,45,0.00,,OVC060,0.00,VWS V14.01,2013-12-17 18:09:00,
2013-12-17 13:14:00,62.2,41.2,30.06,NW,304,0.0,8.0,46,0.00,,OVC060,0.00,VWS V14.01,2013-12-17 18:14:00,
2013-12-17 13:19:00,62.4,41.4,30.06,SSE,163,0.0,8.0,46,0.00,,OVC060,0.00,VWS V14.01,2013-12-17 18:19:00,
2013-12-17 13:24:00,62.6,41.5,30.06,WSW,246,0.0,8.0,46,0.00,,OVC060,0.00,VWS V14.01,2013-12-17 18:24:00,
2013-12-17 13:29:00,62.9,42.4,30.06,SSE,159,0.0,8.0,47,0.00,,OVC060,0.00,VWS V14.01,2013-12-17 18:29:00,
2013-12-17 13:34:00,63.3,41.0,30.05,WNW,293,1.0,8.0,44,0.00,,OVC060,0.00,VWS V14.01,2013-12-17 18:34:00,
2013-12-17 13:39:00,63.7,40.2,30.05,NW,321,2.0,8.0,42,0.00,,OVC060,0.00,VWS V14.01,2013-12-17 18:39:00,
2013-12-17 13:44:00,63.8,40.3,30.04,SSE,168,0.0,8.0,42,0.00,,OVC060,0.00,VWS V14.01,2013-12-17 18:44:00,
2013-12-17 13:49:00,63.9,40.4,30.04,SE,138,0.0,8.0,42,0.00,,OVC060,0.00,VWS V14.01,2013-12-17 18:49:00,
2013-12-17 13:54:00,64.1,40.6,30.04,NNW,336,2.0,8.0,42,0.00,,OVC060,0.00,VWS V14.01,2013-12-17 18:54:00,
2013-12-17 13:59:00,64.2,40.7,30.04,SSE,167,0.0,12.0,42,0.00,,OVC060,0.00,VWS V14.01,2013-12-17 18:59:00,
2013-12-17 14:00:00,64.2,41.3,30.04,North,5,2.0,12.0,43,0.00,,OVC060,0.00,VWS V15.00,2013-12-17 19:00:00,
2013-12-17 14:04:00,64.3,41.3,30.04,South,174,3.0,3.0,43,0.00,,OVC060,0.00,VWS V14.01,2013-12-17 19:04:00,
2013-12-17 14:09:00,64.4,41.4,30.04,SSW,193,1.0,7.0,43,0.00,,OVC060,0.00,VWS V14.01,2013-12-17 19:09:00,
2013-12-17 14:14:00,64.3,39.5,30.04,SSE,156,1.0,7.0,40,0.00,,OVC060,0.00,VWS V14.01,2013-12-17 19:14:00,
2013-12-17 14:19:00,64.1,40.6,30.04,NNE,26,2.0,7.0,42,0.00,,OVC060,0.00,VWS V14.01,2013-12-17 19:19:00,
2013-12-17 14:24:00,64.0,39.8,30.04,SSW,198,2.0,7.0,41,0.00,,OVC060,0.00,VWS V14.01,2013-12-17 19:24:00,
2013-12-17 14:29:00,63.9,41.0,30.04,SW,221,1.0,7.0,43,0.00,,OVC060,0.00,VWS V14.01,2013-12-17 19:29:00,
2013-12-17 14:34:00,63.8,42.1,30.04,SW,228,0.0,7.0,45,0.00,,OVC060,0.00,VWS V14.01,2013-12-17 19:34:00,
2013-12-17 14:39:00,63.9,40.4,30.04,ENE,78,0.0,7.0,42,0.00,,OVC060,0.00,VWS V14.01,2013-12-17 19:39:00,
2013-12-17 14:44:00,64.3,41.9,30.03,East,98,0.0,7.0,44,0.00,,OVC060,0.00,VWS V14.01,2013-12-17 19:44:00,
2013-12-17 14:49:00,64.6,42.2,30.03,SE,146,0.0,7.0,44,0.00,,OVC060,0.00,VWS V14.01,2013-12-17 19:49:00,
2013-12-17 14:54:00,64.8,41.2,30.03,SW,232,1.0,7.0,42,0.00,,OVC060,0.00,VWS V14.01,2013-12-17 19:54:00,
2013-12-17 14:59:00,64.8,40.6,30.03,ENE,61,1.0,7.0,41,0.00,,OVC060,0.00,VWS V14.01,2013-12-17 19:59:00,
2013-12-17 15:00:00,64.8,40.6,30.03,SSE,151,4.0,7.0,41,0.00,,OVC060,0.00,VWS V15.00,2013-12-17 20:00:00,
2013-12-17 15:04:00,64.7,39.2,30.03,East,79,0.0,4.0,39,0.00,,OVC060,0.00,VWS V14.01,2013-12-17 20:04:00,
2013-12-17 15:09:00,64.6,41.0,30.02,ENE,67,0.0,4.0,42,0.00,,OVC060,0.00,VWS V14.01,2013-12-17 20:09:00,
2013-12-17 15:14:00,64.4,39.6,30.02,ESE,115,0.0,5.0,40,0.00,,OVC060,0.00,VWS V14.01,2013-12-17 20:14:00,
2013-12-17 15:19:00,64.0,41.7,30.02,SE,134,1.0,5.0,44,0.00,,OVC060,0.00,VWS V14.01,2013-12-17 20:19:00,
2013-12-17 15:24:00,63.7,39.0,30.02,WSW,243,2.0,5.0,40,0.00,,OVC060,0.00,VWS V14.01,2013-12-17 20:24:00,
2013-12-17 15:29:00,63.4,38.7,30.03,West,271,0.0,5.0,40,0.00,,OVC060,0.00,VWS V14.01,2013-12-17 20:29:00,
2013-12-17 15:34:00,63.1,40.3,30.03,SE,138,0.0,5.0,43,0.00,,OVC060,0.00,VWS V14.01,2013-12-17 20:34:00,
2013-12-17 15:39:00,62.9,40.7,30.02,ESE,107,0.0,5.0,44,0.00,,OVC060,0.00,VWS V14.01,2013-12-17 20:39:00,
2013-12-17 15:44:00,62.7,41.6,30.02,ESE,110,1.0,5.0,46,0.00,,OVC060,0.00,VWS V14.01,2013-12-17 20:44:00,
2013-12-17 15:49:00,62.5,41.5,30.02,ESE,110,0.0,5.0,46,0.00,,OVC060,0.00,VWS V14.01,2013-12-17 20:49:00,
2013-12-17 15:54:00,62.2,40.0,30.02,ESE,110,0.0,5.0,44,0.00,,OVC060,0.00,VWS V14.01,2013-12-17 20:54:00,
2013-12-17 15:59:00,62.1,40.5,30.02,ESE,111,0.0,5.0,45,0.00,,OVC060,0.00,VWS V14.01,2013-12-17 20:59:00,
2013-12-17 16:00:00,62.1,40.5,30.02,ESE,111,0.0,5.0,45,0.00,,OVC060,0.00,VWS V15.00,2013-12-17 21:00:00,
2013-12-17 16:05:00,62.1,41.1,30.02,ESE,111,0.0,1.0,46,0.00,,OVC060,0.00,VWS V14.01,2013-12-17 21:05:00,
2013-12-17 16:10:00,62.0,39.9,30.02,SSE,166,0.0,2.0,44,0.00,,OVC060,0.00,VWS V14.01,2013-12-17 21:10:00,
2013-12-17 16:15:00,61.8,40.8,30.02,East,98,1.0,2.0,46,0.00,,OVC060,0.00,VWS V14.01,2013-12-17 21:15:00,
2013-12-17 16:20:00,61.6,40.6,30.01,East,90,0.0,2.0,46,0.00,,OVC060,0.00,VWS V14.01,2013-12-17 21:20:00,
2013-12-17 16:25:00,61.4,39.3,30.02,East,98,0.0,2.0,44,0.00,,OVC060,0.00,VWS V14.01,2013-12-17 21:25:00,
2013-12-17 16:30:00,61.2,40.8,30.02,SE,144,0.0,2.0,47,0.00,,OVC060,0.00,VWS V14.01,2013-12-17 21:30:00,
2013-12-17 16:35:00,61.0,40.1,30.02,SSE,150,1.0,4.0,46,0.00,,OVC060,0.00,VWS V14.01,2013-12-17 21:35:00,
2013-12-17 16:40:00,60.7,40.4,30.02,SSE,150,0.0,4.0,47,0.00,,OVC060,0.00,VWS V14.01,2013-12-17 21:40:00,
2013-12-17 16:45:00,60.4,40.1,30.02,ESE,110,0.0,4.0,47,0.00,,OVC060,0.00,VWS V14.01,2013-12-17 21:45:00,
2013-12-17 16:50:00,60.1,40.4,30.02,SSW,209,0.0,4.0,48,0.00,,OVC060,0.00,VWS V14.01,2013-12-17 21:50:00,
2013-12-17 16:55:00,59.8,40.1,30.02,SSW,209,0.0,4.0,48,0.00,,OVC060,0.00,VWS V14.01,2013-12-17 21:55:00,
2013-12-17 17:00:00,59.4,39.7,30.02,SSW,205,0.0,4.0,48,0.00,,OVC060,0.00,VWS V14.01,2013-12-17 22:00:00,
2013-12-17 17:05:00,59.0,41.4,30.02,SSW,205,0.0,0.0,52,0.00,,OVC060,0.00,VWS V14.01,2013-12-17 22:05:00,
2013-12-17 17:10:00,58.5,40.5,30.02,SSW,205,0.0,0.0,51,0.00,,OVC060,0.00,VWS V14.01,2013-12-17 22:10:00,
2013-12-17 17:15:00,58.0,40.5,30.01,SSW,205,1.0,1.0,52,0.00,,OVC060,0.00,VWS V14.01,2013-12-17 22:15:00,
2013-12-17 17:20:00,57.7,39.7,30.02,SSW,205,0.0,1.0,51,0.00,,OVC060,0.00,VWS V14.01,2013-12-17 22:20:00,
2013-12-17 17:25:00,57.6,40.1,30.02,SW,218,0.0,1.0,52,0.00,,OVC060,0.00,VWS V14.01,2013-12-17 22:25:00,
2013-12-17 17:30:00,57.5,40.5,30.01,SW,218,0.0,1.0,53,0.00,,OVC060,0.00,VWS V14.01,2013-12-17 22:30:00,
2013-12-17 17:35:00,57.2,40.2,30.01,SW,218,0.0,1.0,53,0.00,,OVC060,0.00,VWS V14.01,2013-12-17 22:35:00,
2013-12-17 17:40:00,56.8,40.8,30.01,SW,218,0.0,1.0,55,0.00,,OVC060,0.00,VWS V14.01,2013-12-17 22:40:00,
2013-12-17 17:45:00,56.4,40.9,30.01,SW,218,0.0,1.0,56,0.00,,OVC060,0.00,VWS V14.01,2013-12-17 22:45:00,
2013-12-17 17:50:00,55.9,41.3,30.02,SW,218,0.0,1.0,58,0.00,,OVC060,0.00,VWS V14.01,2013-12-17 22:50:00,
2013-12-17 17:55:00,55.5,40.5,30.02,SW,218,0.0,1.0,57,0.00,,OVC060,0.00,VWS V14.01,2013-12-17 22:55:00,
2013-12-17 18:00:00,55.0,40.1,30.02,SW,218,0.0,1.0,57,0.00,,OVC060,0.00,VWS V14.01,2013-12-17 23:00:00,
2013-12-17 18:05:00,54.6,40.6,30.02,SW,218,0.0,0.0,59,0.00,,OVC060,0.00,VWS V14.01,2013-12-17 23:05:00,
2013-12-17 18:10:00,54.3,40.7,30.02,SW,218,0.0,0.0,60,0.00,,OVC060,0.00,VWS V14.01,2013-12-17 23:10:00,
2013-12-17 18:15:00,54.1,40.1,30.02,SW,218,0.0,0.0,59,0.00,,OVC060,0.00,VWS V14.01,2013-12-17 23:15:00,
2013-12-17 18:20:00,53.9,41.2,30.02,SW,218,0.0,0.0,62,0.00,,OVC060,0.00,VWS V14.01,2013-12-17 23:20:00,
2013-12-17 18:25:00,53.6,41.3,30.02,SW,218,0.0,0.0,63,0.00,,OVC060,0.00,VWS V14.01,2013-12-17 23:25:00,
2013-12-17 18:30:00,53.2,40.5,30.02,SW,218,0.0,0.0,62,0.00,,OVC060,0.00,VWS V14.01,2013-12-17 23:30:00,
2013-12-17 18:35:00,53.0,41.2,30.02,SW,218,0.0,0.0,64,0.00,,OVC060,0.00,VWS V14.01,2013-12-17 23:35:00,
2013-12-17 18:40:00,52.8,40.6,30.02,SW,218,0.0,0.0,63,0.00,,OVC060,0.00,VWS V14.01,2013-12-17 23:40:00,
2013-12-17 18:45:00,52.9,40.2,30.02,SW,218,0.0,0.0,62,0.00,,OVC060,0.00,VWS V14.01,2013-12-17 23:45:00,
2013-12-17 18:50:00,53.1,40.4,30.03,SW,218,0.0,0.0,62,0.00,,OVC060,0.00,VWS V14.01,2013-12-17 23:50:00,
2013-12-17 18:55:00,53.2,40.1,30.03,SW,218,0.0,1.0,61,0.00,,OVC060,0.00,VWS V14.01,2013-12-17 23:55:00,
2013-12-17 19:00:00,53.4,40.3,30.03,SW,218,0.0,1.0,61,0.00,,OVC060,0.00,VWS V14.01,2013-12-18 00:00:00,
2013-12-17 19:06:00,53.6,40.1,30.03,SSW,213,0.0,1.0,60,0.00,,OVC060,0.00,VWS V14.01,2013-12-18 00:06:00,
2013-12-17 19:11:00,53.8,40.3,30.03,SSW,213,0.0,1.0,60,0.00,,OVC060,0.00,VWS V14.01,2013-12-18 00:11:00,
2013-12-17 19:16:00,53.9,40.3,30.03,SSW,213,0.0,1.0,60,0.00,,OVC060,0.00,VWS V14.01,2013-12-18 00:16:00,
2013-12-17 19:21:00,53.9,40.8,30.03,SSW,213,0.0,1.0,61,0.00,,OVC060,0.00,VWS V14.01,2013-12-18 00:21:00,
2013-12-17 19:26:00,53.9,39.9,30.03,SSW,213,0.0,1.0,59,0.00,,OVC060,0.00,VWS V14.01,2013-12-18 00:26:00,
2013-12-17 19:31:00,54.1,40.5,30.03,SSW,203,0.0,2.0,60,0.00,,OVC060,0.00,VWS V14.01,2013-12-18 00:31:00,
2013-12-17 19:36:00,54.2,39.8,30.03,SSW,195,0.0,2.0,58,0.00,,OVC060,0.00,VWS V14.01,2013-12-18 00:36:00,
2013-12-17 19:41:00,54.3,39.8,30.03,SSW,195,0.0,2.0,58,0.00,,OVC060,0.00,VWS V14.01,2013-12-18 00:41:00,
2013-12-17 19:46:00,54.4,40.0,30.03,South,190,1.0,2.0,58,0.00,,OVC060,0.00,VWS V14.01,2013-12-18 00:46:00,
2013-12-17 19:51:00,54.4,40.0,30.03,SE,146,0.0,2.0,58,0.00,,OVC060,0.00,VWS V14.01,2013-12-18 00:51:00,
2013-12-17 19:56:00,54.4,40.0,30.03,South,180,2.0,2.0,58,0.00,,OVC060,0.00,VWS V14.01,2013-12-18 00:56:00,
2013-12-17 20:00:00,54.4,40.4,30.03,South,180,0.0,2.0,59,0.00,,OVC060,0.00,VWS V15.00,2013-12-18 01:00:00,
2013-12-17 20:01:00,54.4,40.4,30.03,South,180,0.0,2.0,59,0.00,,OVC060,0.00,VWS V14.01,2013-12-18 01:01:00,
2013-12-17 20:06:00,54.3,39.8,30.03,East,92,0.0,2.0,58,0.00,,OVC060,0.00,VWS V14.01,2013-12-18 01:06:00,
2013-12-17 20:11:00,54.1,40.1,30.03,South,175,0.0,2.0,59,0.00,,OVC060,0.00,VWS V14.01,2013-12-18 01:11:00,
2013-12-17 20:16:00,54.0,40.0,30.03,SE,144,0.0,2.0,59,0.00,,OVC060,0.00,VWS V14.01,2013-12-18 01:16:00,
2013-12-17 20:21:00,54.0,40.0,30.03,SW,214,0.0,2.0,59,0.00,,OVC060,0.00,VWS V14.01,2013-12-18 01:21:00,
2013-12-17 20:26:00,53.8,39.8,30.03,SSW,202,0.0,2.0,59,0.00,,OVC060,0.00,VWS V14.01,2013-12-18 01:26:00,
2013-12-17 20:31:00,53.5,40.4,30.02,SSW,202,0.0,2.0,61,0.00,,OVC060,0.00,VWS V14.01,2013-12-18 01:31:00,
2013-12-17 20:36:00,53.3,39.8,30.02,SSW,202,0.0,2.0,60,0.00,,OVC060,0.00,VWS V14.01,2013-12-18 01:36:00,
2013-12-17 20:41:00,53.2,40.1,30.02,SW,223,0.0,3.0,61,0.00,,OVC060,0.00,VWS V14.01,2013-12-18 01:41:00,
2013-12-17 20:46:00,53.2,40.1,30.02,SW,233,0.0,3.0,61,0.00,,OVC060,0.00,VWS V14.01,2013-12-18 01:46:00,
2013-12-17 20:51:00,53.0,39.9,30.02,SW,233,0.0,3.0,61,0.00,,OVC060,0.00,VWS V14.01,2013-12-18 01:51:00,
2013-12-17 20:56:00,53.0,39.9,30.02,SE,142,0.0,3.0,61,0.00,,OVC060,0.00,VWS V14.01,2013-12-18 01:56:00,
2013-12-17 21:00:00,53.0,40.3,30.02,SE,142,0.0,3.0,62,0.00,,OVC060,0.00,VWS V15.00,2013-12-18 02:00:00,
2013-12-17 21:01:00,53.0,40.3,30.02,SE,142,0.0,0.0,62,0.00,,OVC060,0.00,VWS V14.01,2013-12-18 02:01:00,
2013-12-17 21:06:00,53.0,39.9,30.02,SSE,150,1.0,3.0,61,0.00,,OVC060,0.00,VWS V14.01,2013-12-18 02:06:00,
2013-12-17 21:11:00,53.0,39.5,30.02,SE,146,0.0,3.0,60,0.00,,OVC060,0.00,VWS V14.01,2013-12-18 02:11:00,
2013-12-17 21:16:00,53.2,39.3,30.02,SE,144,0.0,4.0,59,0.00,,OVC060,0.00,VWS V14.01,2013-12-18 02:16:00,
2013-12-17 21:21:00,53.2,39.7,30.02,SSE,160,0.0,4.0,60,0.00,,OVC060,0.00,VWS V14.01,2013-12-18 02:21:00,
2013-12-17 21:26:00,53.2,39.7,30.02,SSE,160,0.0,4.0,60,0.00,,OVC060,0.00,VWS V14.01,2013-12-18 02:26:00,
2013-12-17 21:31:00,53.1,40.0,30.02,SE,134,0.0,4.0,61,0.00,,OVC060,0.00,VWS V14.01,2013-12-18 02:31:00,
2013-12-17 21:36:00,52.8,40.2,30.02,SE,134,0.0,4.0,62,0.00,,OVC060,0.00,VWS V14.01,2013-12-18 02:36:00,
2013-12-17 21:41:00,52.6,39.5,30.02,SE,134,0.0,4.0,61,0.00,,OVC060,0.00,VWS V14.01,2013-12-18 02:41:00,
2013-12-17 21:46:00,52.5,39.9,30.02,SE,134,0.0,4.0,62,0.00,,OVC060,0.00,VWS V14.01,2013-12-18 02:46:00,
2013-12-17 21:51:00,52.4,39.4,30.02,South,190,0.0,4.0,61,0.00,,OVC060,0.00,VWS V14.01,2013-12-18 02:51:00,
2013-12-17 21:57:00,52.6,39.5,30.02,SSE,168,0.0,4.0,61,0.00,,OVC060,0.00,VWS V14.01,2013-12-18 02:57:00,
2013-12-17 22:00:00,52.7,39.6,30.03,South,188,0.0,4.0,61,0.00,,OVC060,0.00,VWS V15.00,2013-12-18 03:00:00,
2013-12-17 22:02:00,52.7,39.6,30.03,South,188,0.0,0.0,61,0.00,,OVC060,0.00,VWS V14.01,2013-12-18 03:02:00,
2013-12-17 22:07:00,52.7,40.1,30.03,SSW,202,0.0,1.0,62,0.00,,OVC060,0.00,VWS V14.01,2013-12-18 03:07:00,
2013-12-17 22:12:00,52.6,39.5,30.03,ENE,75,0.0,4.0,61,0.00,,OVC060,0.00,VWS V14.01,2013-12-18 03:12:00,
2013-12-17 22:17:00,52.6,39.5,30.03,SSW,206,0.0,4.0,61,0.00,,OVC060,0.00,VWS V14.01,2013-12-18 03:17:00,
2013-12-17 22:22:00,52.6,40.0,30.03,SE,126,0.0,4.0,62,0.00,,OVC060,0.00,VWS V14.01,2013-12-18 03:22:00,
2013-12-17 22:27:00,52.4,39.8,30.03,South,180,0.0,4.0,62,0.00,,OVC060,0.00,VWS V14.01,2013-12-18 03:27:00,
2013-12-17 22:32:00,52.2,40.0,30.03,ESE,109,0.0,4.0,63,0.00,,OVC060,0.00,VWS V14.01,2013-12-18 03:32:00,
2013-12-17 22:37:00,52.0,39.4,30.03,South,173,1.0,4.0,62,0.00,,OVC060,0.00,VWS V14.01,2013-12-18 03:37:00,
2013-12-17 22:42:00,52.0,39.4,30.03,SSW,194,0.0,4.0,62,0.00,,OVC060,0.00,VWS V14.01,2013-12-18 03:42:00,
2013-12-17 22:47:00,51.9,39.3,30.04,SSW,209,0.0,4.0,62,0.00,,OVC060,0.00,VWS V14.01,2013-12-18 03:47:00,
2013-12-17 22:52:00,51.9,39.7,30.04,South,180,0.0,5.0,63,0.00,,OVC060,0.00,VWS V14.01,2013-12-18 03:52:00,
2013-12-17 22:57:00,51.8,40.0,30.04,South,180,0.0,5.0,64,0.00,,OVC060,0.00,VWS V14.01,2013-12-18 03:57:00,
2013-12-17 23:00:00,51.5,39.3,30.04,South,180,0.0,5.0,63,0.00,,OVC060,0.00,VWS V15.00,2013-12-18 04:00:00,
2013-12-17 23:02:00,51.5,39.7,30.04,SSE,164,1.0,1.0,64,0.00,,OVC060,0.00,VWS V14.01,2013-12-18 04:02:00,
2013-12-17 23:07:00,51.4,39.2,30.04,SSE,159,0.0,5.0,63,0.00,,OVC060,0.00,VWS V14.01,2013-12-18 04:07:00,
2013-12-17 23:12:00,51.5,39.3,30.04,South,179,0.0,5.0,63,0.00,,OVC060,0.00,VWS V14.01,2013-12-18 04:12:00,
2013-12-17 23:17:00,51.4,39.2,30.04,WSW,244,0.0,6.0,63,0.00,,OVC060,0.00,VWS V14.01,2013-12-18 04:17:00,
2013-12-17 23:22:00,51.4,39.7,30.04,SE,141,0.0,6.0,64,0.00,,OVC060,0.00,VWS V14.01,2013-12-18 04:22:00,
2013-12-17 23:27:00,51.2,39.8,30.04,SE,141,0.0,6.0,65,0.00,,OVC060,0.00,VWS V14.01,2013-12-18 04:27:00,
2013-12-17 23:32:00,51.0,39.7,30.04,SE,141,0.0,6.0,65,0.00,,OVC060,0.00,VWS V14.01,2013-12-18 04:32:00,
2013-12-17 23:37:00,50.8,39.9,30.04,South,169,0.0,6.0,66,0.00,,OVC060,0.00,VWS V14.01,2013-12-18 04:37:00,
2013-12-17 23:42:00,50.6,40.1,30.04,South,169,0.0,6.0,67,0.00,,OVC060,0.00,VWS V14.01,2013-12-18 04:42:00,
2013-12-17 23:47:00,50.4,39.9,30.04,SSW,199,0.0,6.0,67,0.00,,OVC060,0.00,VWS V14.01,2013-12-18 04:47:00,
2013-12-17 23:52:00,50.3,39.0,30.04,SE,125,0.0,6.0,65,0.00,,OVC060,0.00,VWS V14.01,2013-12-18 04:52:00,
2013-12-17 23:57:00,50.4,39.5,30.04,SE,125,0.0,6.0,66,0.00,,OVC060,0.00,VWS V14.01,2013-12-18 04:57:00,